• In Belarus
  • List of Countries
  • For 7 days
  • Water Temperature
  • Satellite Maps
  • Weather Map
  • Weather Widgets
  • user-avatar
    Login

    Hourly Weather Priazovskoe

    Today, 11 December, Monday

    Time Temperature Precipitation Wind Pressure Humidity
    00:00 +1°C° 0 mm 11 mps 759 mmHg 65%
    01:00 0°C° 0 mm 10 mps 760 mmHg 64%
    02:00 -1°C° 0 mm 9 mps 761 mmHg 62%
    03:00 -1°C° 0 mm 8 mps 762 mmHg 62%
    04:00 -1°C° 0 mm 7 mps 763 mmHg 62%
    05:00 -1°C° 0 mm 6 mps 763 mmHg 62%
    06:00 -1°C° 0 mm 6 mps 764 mmHg 66%
    07:00 -1°C° 0 mm 6 mps 764 mmHg 71%
    08:00 +1°C° 0 mm 6 mps 764 mmHg 76%
    09:00 +2°C° 0 mm 6 mps 764 mmHg 72%
    10:00 +4°C° 0 mm 7 mps 765 mmHg 69%
    11:00 +5°C° 0 mm 8 mps 765 mmHg 65%
    12:00 +6°C° 0 mm 7 mps 765 mmHg 62%
    13:00 +6°C° 0 mm 7 mps 765 mmHg 58%
    14:00 +8°C° 0 mm 7 mps 765 mmHg 54%
    15:00 +7°C° 0 mm 6 mps 765 mmHg 59%
    16:00 +5°C° 0 mm 6 mps 765 mmHg 65%
    17:00 +5°C° 0 mm 6 mps 766 mmHg 70%
    18:00 +5°C° 0 mm 6 mps 765 mmHg 71%
    19:00 +5°C° 0 mm 7 mps 765 mmHg 72%
    20:00 +5°C° 0 mm 7 mps 765 mmHg 74%
    21:00 +5°C° 0 mm 7 mps 765 mmHg 76%
    22:00 +5°C° 0 mm 7 mps 765 mmHg 79%
    23:00 +5°C° 0 mm 7 mps 765 mmHg 81%

    Tomorrow, 12 December, Tuesday

    Time Temperature Precipitation Wind Pressure Humidity
    00:00 +4°C° 0 mm 6 mps 765 mmHg 84%
    01:00 +4°C° 0 mm 6 mps 765 mmHg 86%
    02:00 +4°C° 0 mm 6 mps 765 mmHg 89%
    03:00 +4°C° 0 mm 6 mps 765 mmHg 90%
    04:00 +5°C° 0 mm 6 mps 765 mmHg 92%
    05:00 +5°C° 0 mm 6 mps 765 mmHg 93%
    06:00 +5°C° 0 mm 6 mps 765 mmHg 93%
    07:00 +5°C° 0 mm 6 mps 766 mmHg 93%
    08:00 +7°C° 0 mm 6 mps 766 mmHg 93%
    09:00 +8°C° 0 mm 6 mps 766 mmHg 89%
    10:00 +9°C° 0 mm 6 mps 766 mmHg 85%
    11:00 +10°C° 0 mm 6 mps 766 mmHg 81%
    12:00 +11°C° 0 mm 6 mps 766 mmHg 78%
    13:00 +11°C° 0 mm 6 mps 765 mmHg 75%
    14:00 +13°C° 0 mm 6 mps 765 mmHg 72%
    15:00 +12°C° 0 mm 5 mps 765 mmHg 78%
    16:00 +10°C° 0 mm 5 mps 766 mmHg 83%
    17:00 +8°C° 0 mm 4 mps 766 mmHg 88%
    18:00 +8°C° 0 mm 5 mps 766 mmHg 90%
    19:00 +8°C° 0 mm 5 mps 766 mmHg 91%
    20:00 +8°C° 0 mm 5 mps 766 mmHg 92%
    21:00 +7°C° 0 mm 5 mps 766 mmHg 93%
    22:00 +7°C° 0 mm 5 mps 766 mmHg 93%
    23:00 +7°C° 0 mm 5 mps 766 mmHg 94%

    Day after tomorrow, 13 December, Wednesday

    Time Temperature Precipitation Wind Pressure Humidity
    00:00 +7°C° 0 mm 5 mps 766 mmHg 94%
    01:00 +7°C° 0 mm 5 mps 766 mmHg 94%
    02:00 +7°C° 0 mm 4 mps 766 mmHg 95%
    03:00 +6°C° 0 mm 4 mps 766 mmHg 94%
    04:00 +6°C° 0 mm 4 mps 766 mmHg 94%
    05:00 +6°C° 0 mm 4 mps 766 mmHg 94%
    06:00 +6°C° 0 mm 4 mps 766 mmHg 94%
    07:00 +6°C° 0 mm 4 mps 766 mmHg 93%
    08:00 +6°C° 0 mm 4 mps 766 mmHg 93%
    09:00 +8°C° 0 mm 4 mps 766 mmHg 85%
    10:00 +10°C° 0 mm 4 mps 766 mmHg 78%
    11:00 +12°C° 0 mm 5 mps 766 mmHg 70%
    12:00 +12°C° 0 mm 4 mps 765 mmHg 68%
    13:00 +13°C° 0 mm 4 mps 765 mmHg 66%
    14:00 +13°C° 0 mm 4 mps 765 mmHg 65%
    15:00 +12°C° 0 mm 4 mps 765 mmHg 69%
    16:00 +11°C° 0 mm 4 mps 764 mmHg 73%
    17:00 +8°C° 0 mm 4 mps 764 mmHg 77%
    18:00 +8°C° 0 mm 4 mps 764 mmHg 79%
    19:00 +8°C° 0 mm 4 mps 764 mmHg 80%
    20:00 +8°C° 0 mm 4 mps 764 mmHg 81%
    21:00 +7°C° 0 mm 4 mps 764 mmHg 82%
    22:00 +7°C° 0 mm 4 mps 764 mmHg 83%
    23:00 +7°C° 0 mm 4 mps 763 mmHg 83%

    14 December, Thursday

    Time Temperature Precipitation Wind Pressure Humidity
    00:00 +7°C° 0 mm 4 mps 763 mmHg 83%
    01:00 +7°C° 0 mm 4 mps 763 mmHg 83%
    02:00 +6°C° 0 mm 4 mps 763 mmHg 84%
    03:00 +6°C° 0 mm 4 mps 763 mmHg 84%
    04:00 +6°C° 0 mm 4 mps 762 mmHg 84%
    05:00 +6°C° 0 mm 4 mps 762 mmHg 84%
    06:00 +6°C° 0 mm 4 mps 762 mmHg 83%
    07:00 +6°C° 0 mm 4 mps 762 mmHg 83%
    08:00 +6°C° 0 mm 4 mps 762 mmHg 82%
    09:00 +7°C° 0 mm 4 mps 762 mmHg 78%
    10:00 +8°C° 0 mm 4 mps 762 mmHg 74%
    11:00 +10°C° 0 mm 4 mps 762 mmHg 69%
    12:00 +10°C° 0 mm 4 mps 761 mmHg 69%
    13:00 +11°C° 0 mm 3 mps 761 mmHg 70%
    14:00 +11°C° 0 mm 3 mps 761 mmHg 70%
    15:00 +10°C° 0 mm 3 mps 761 mmHg 72%
    16:00 +10°C° 0 mm 3 mps 761 mmHg 74%
    17:00 +9°C° 0 mm 3 mps 761 mmHg 77%
    18:00 +9°C° 0 mm 3 mps 761 mmHg 77%
    19:00 +9°C° 0 mm 3 mps 761 mmHg 76%
    20:00 +9°C° 0 mm 3 mps 761 mmHg 76%
    21:00 +9°C° 0 mm 3 mps 761 mmHg 77%
    22:00 +9°C° 0 mm 3 mps 761 mmHg 77%
    23:00 +8°C° 0 mm 4 mps 760 mmHg 78%

    15 December, Friday

    Time Temperature Precipitation Wind Pressure Humidity
    00:00 +9°C° 0 mm 3 mps 760 mmHg 79%
    01:00 +9°C° 0 mm 3 mps 760 mmHg 81%
    02:00 +8°C° 0 mm 3 mps 760 mmHg 82%
    03:00 +8°C° 0 mm 3 mps 760 mmHg 85%
    04:00 +8°C° 0 mm 3 mps 760 mmHg 88%
    05:00 +8°C° 0 mm 3 mps 760 mmHg 91%
    06:00 +7°C° 0 mm 3 mps 761 mmHg 92%
    07:00 +7°C° 0 mm 3 mps 761 mmHg 94%
    08:00 +7°C° 0 mm 3 mps 761 mmHg 95%
    09:00 +7°C° 0 mm 4 mps 761 mmHg 87%
    10:00 +8°C° 0 mm 4 mps 762 mmHg 79%
    11:00 +10°C° 0 mm 4 mps 762 mmHg 71%
    12:00 +11°C° 0 mm 4 mps 762 mmHg 68%
    13:00 +11°C° 0 mm 4 mps 762 mmHg 64%
    14:00 +12°C° 0 mm 3 mps 762 mmHg 61%
    15:00 +11°C° 0 mm 4 mps 762 mmHg 67%
    16:00 +10°C° 0 mm 4 mps 763 mmHg 73%
    17:00 +7°C° 0 mm 4 mps 763 mmHg 79%
    18:00 +7°C° 0 mm 4 mps 763 mmHg 82%
    19:00 +7°C° 0 mm 5 mps 763 mmHg 84%
    20:00 +7°C° 0 mm 5 mps 763 mmHg 87%
    21:00 +6°C° 0 mm 5 mps 763 mmHg 88%
    22:00 +6°C° 0 mm 5 mps 763 mmHg 89%
    23:00 +6°C° 0 mm 5 mps 763 mmHg 90%

    16 December, Saturday

    Time Temperature Precipitation Wind Pressure Humidity
    00:00 +5°C° 0 mm 6 mps 762 mmHg 89%
    01:00 +5°C° 0 mm 6 mps 762 mmHg 89%
    02:00 +5°C° 0 mm 6 mps 762 mmHg 88%
    03:00 +6°C° 0 mm 7 mps 762 mmHg 86%
    04:00 +6°C° 0 mm 7 mps 761 mmHg 85%
    05:00 +6°C° 0 mm 8 mps 761 mmHg 83%
    06:00 +6°C° 0 mm 8 mps 761 mmHg 79%
    07:00 +6°C° 0 mm 8 mps 761 mmHg 75%
    08:00 +7°C° 0 mm 9 mps 760 mmHg 71%
    09:00 +7°C° 0 mm 9 mps 760 mmHg 67%
    10:00 +8°C° 0 mm 9 mps 760 mmHg 64%
    11:00 +10°C° 0 mm 9 mps 760 mmHg 60%
    12:00 +11°C° 0 mm 9 mps 760 mmHg 58%
    13:00 +11°C° 0 mm 8 mps 759 mmHg 56%
    14:00 +12°C° 0 mm 8 mps 759 mmHg 55%
    15:00 +11°C° 0 mm 8 mps 759 mmHg 59%
    16:00 +10°C° 0 mm 8 mps 759 mmHg 64%
    17:00 +10°C° 0 mm 8 mps 759 mmHg 68%
    18:00 +10°C° 0 mm 7 mps 760 mmHg 71%
    19:00 +9°C° 0 mm 7 mps 760 mmHg 74%
    20:00 +9°C° 0 mm 6 mps 760 mmHg 77%
    21:00 +9°C° 0 mm 6 mps 760 mmHg 81%
    22:00 +9°C° 0 mm 5 mps 760 mmHg 85%
    23:00 +9°C° 0 mm 5 mps 760 mmHg 89%
    Show more